Weather History for KOTM - April, 2014

Change the Weather History Date:

Monday, April 28, 2014

  Actual Average Record
Temperature  
Mean Temperature 62 °F 55 °F  
Max Temperature 72 °F 67 °F 90 °F (1970)
Min Temperature 51 °F 44 °F 28 °F (1928)
Degree Days  
Heating Degree Days 3 10  
Month to date heating degree days 407 416  
Since 1 July heating degree days 6898 6112  
Cooling Degree Days 0 1  
Month to date cooling degree days 8 8  
Year to date cooling degree days 8 9  
Growing Degree Days 12 (Base 50)    
Moisture  
Dew Point 55 °F    
Average Humidity 77    
Maximum Humidity 100    
Minimum Humidity 53    
Precipitation  
Precipitation 0.26 in 0.13 in 0.99 in (1981)
Month to date precipitation 4.10 3.13  
Year to date precipitation 5.96 7.55  
Sea Level Pressure  
Sea Level Pressure 29.37 in    
Wind  
Wind Speed 14 mph (SE)    
Max Wind Speed 30 mph    
Max Gust Speed 36 mph    
Visibility 8 miles    
Events Rain , Thunderstorm    
T = Trace of Precipitation, MM = Missing Value Source: NWS Daily Summary

Daily Weather History Graph

Daily Weather History Graph

Search for Another Location

Airport or City:

Trip Planner

Search our weather history database for the weather conditions in past years. The results will help you decide how hot, cold, wet, or windy it might be!

Date:

Astronomy

Apr. 28, 2014 Rise Set
Actual Time 6:11 AM CDT 8:03 PM CDT
Civil Twilight 5:41 AM CDT 8:33 PM CDT
Nautical Twilight 5:05 AM CDT 9:09 PM CDT
Astronomical Twilight 4:27 AM CDT 9:48 PM CDT
Moon 5:50 AM CDT 7:41 PM CDT
Length of Visible Light 14h 51m
Length of Day
13h 52m
Waning Crescent, 0% of the Moon is Illuminated
Apr 28
Waning Crescent
Apr 29
New
May 6
First Quarter
May 14
Full
May 21
Last Quarter

Hourly Weather History & Observations

Time (CDT) Temp. Dew Point Humidity Pressure Visibility Wind Dir Wind Speed Gust Speed Precip Events Conditions
12:16 AM 62.1 °F 59.0 °F 90% 29.48 in 8.0 mi SE 16.1 mph 25.3 mph 0.03 in Rain Light Rain
12:30 AM 62.1 °F 59.0 °F 90% 29.46 in 9.0 mi ESE 21.9 mph 32.2 mph 0.03 in Rain Light Rain
12:53 AM 62.1 °F 59.0 °F 90% 29.46 in 10.0 mi SE 19.6 mph 29.9 mph 0.03 in Rain Light Rain
1:29 AM 62.1 °F 59.0 °F 90% 29.45 in 10.0 mi SE 16.1 mph 21.9 mph 0.10 in Rain Light Rain
1:50 AM 62.6 °F 59.0 °F 88% 29.43 in 10.0 mi ESE 17.3 mph - 0.10 in   Overcast
1:53 AM 62.6 °F 59.0 °F 88% 29.43 in 10.0 mi ESE 17.3 mph - N/A   Overcast
2:53 AM 62.1 °F 57.0 °F 84% 29.40 in 10.0 mi SE 13.8 mph - N/A   Overcast
3:53 AM 61.0 °F 55.9 °F 83% 29.39 in 10.0 mi SE 15.0 mph - N/A   Scattered Clouds
4:35 AM 61.0 °F 57.0 °F 87% 29.39 in 10.0 mi SE 18.4 mph - N/A   Mostly Cloudy
4:53 AM 60.1 °F 55.9 °F 86% 29.36 in 10.0 mi ESE 13.8 mph - N/A   Mostly Cloudy
5:04 AM 60.1 °F 57.0 °F 90% 29.36 in 10.0 mi ESE 13.8 mph - N/A   Scattered Clouds
5:53 AM 59.0 °F 55.9 °F 90% 29.36 in 10.0 mi East 11.5 mph - N/A   Clear
6:53 AM 59.0 °F 55.9 °F 90% 29.36 in 10.0 mi East 15.0 mph - N/A   Clear
7:15 AM 57.9 °F 55.9 °F 93% 29.38 in 8.0 mi East 17.3 mph - N/A   Scattered Clouds
7:24 AM 57.2 °F 55.4 °F 94% 29.39 in 3.0 mi East 19.6 mph - N/A   Mostly Cloudy
7:29 AM 57.0 °F 55.9 °F 96% 29.39 in 1.8 mi East 19.6 mph - N/A   Mostly Cloudy
7:41 AM 55.9 °F 55.0 °F 97% 29.39 in 0.8 mi East 18.4 mph - N/A   Overcast
7:53 AM 55.9 °F 55.0 °F 97% 29.39 in 0.8 mi East 18.4 mph - N/A   Overcast
8:04 AM 55.9 °F 55.0 °F 97% 29.38 in 1.5 mi East 19.6 mph - N/A   Overcast
8:46 AM 57.0 °F 55.9 °F 96% 29.38 in 3.0 mi East 16.1 mph 25.3 mph N/A   Overcast
8:53 AM 57.2 °F 55.4 °F 94% 29.38 in 4.0 mi East 16.1 mph - N/A   Overcast
9:22 AM 60.1 °F 57.0 °F 90% 29.37 in 9.0 mi East 17.3 mph - N/A   Mostly Cloudy
9:36 AM 61.0 °F 57.0 °F 87% 29.37 in 10.0 mi East 16.1 mph - N/A   Mostly Cloudy
9:45 AM 61.0 °F 57.9 °F 90% 29.36 in 10.0 mi East 16.1 mph - N/A   Overcast
9:53 AM 61.0 °F 57.9 °F 90% 29.35 in 10.0 mi East 16.1 mph - N/A   Overcast
10:07 AM 63.0 °F 57.9 °F 84% 29.36 in 10.0 mi ESE 12.7 mph - N/A   Overcast
10:53 AM 64.9 °F 57.0 °F 75% 29.36 in 10.0 mi SE 18.4 mph 24.2 mph N/A   Overcast
11:10 AM 64.9 °F 55.9 °F 73% 29.36 in 10.0 mi ESE 16.1 mph - N/A   Overcast
11:19 AM 64.9 °F 57.0 °F 75% 29.36 in 10.0 mi ESE 17.3 mph - N/A   Overcast
11:30 AM 64.9 °F 55.9 °F 73% 29.36 in 10.0 mi SE 15.0 mph - N/A   Overcast
11:53 AM 66.0 °F 55.9 °F 70% 29.34 in 10.0 mi SE 13.8 mph - N/A   Overcast
12:05 PM 66.9 °F 57.0 °F 70% 29.35 in 10.0 mi ESE 18.4 mph 23.0 mph N/A   Overcast
12:17 PM 68.0 °F 57.9 °F 70% 29.34 in 10.0 mi SE 17.3 mph 25.3 mph N/A   Mostly Cloudy
12:53 PM 69.1 °F 57.0 °F 65% 29.32 in 10.0 mi SSE 13.8 mph 21.9 mph N/A   Mostly Cloudy
1:53 PM 72.0 °F 54.0 °F 53% 29.30 in 10.0 mi SSE 16.1 mph 25.3 mph N/A   Mostly Cloudy
2:46 PM 70.0 °F 55.9 °F 61% 29.30 in 10.0 mi South 13.8 mph - 0.01 in Rain , Thunderstorm Light Rain
2:53 PM 69.1 °F 55.0 °F 61% 29.29 in 10.0 mi South 17.3 mph 27.6 mph 0.01 in Rain , Thunderstorm Light Rain
3:03 PM 69.1 °F 55.0 °F 61% 29.30 in 10.0 mi SSE 17.3 mph - 0.00 in Rain Light Rain
3:11 PM 66.0 °F 55.0 °F 68% 29.29 in 6.0 mi South 12.7 mph - 0.02 in Rain , Thunderstorm Thunderstorms and Rain
3:49 PM 60.8 °F 53.6 °F 77% 29.31 in 1.8 mi South 26.5 mph 35.7 mph 0.12 in Rain , Thunderstorm Heavy Thunderstorms and Rain
3:53 PM 61.0 °F 53.1 °F 75% 29.30 in 1.5 mi South 24.2 mph 35.7 mph 0.13 in Rain , Thunderstorm Heavy Thunderstorms and Rain
3:58 PM 60.1 °F 51.1 °F 72% 29.31 in 3.0 mi South 17.3 mph - 0.01 in Rain , Thunderstorm Thunderstorms and Rain
4:09 PM 59.0 °F 52.0 °F 78% 29.31 in 10.0 mi South 16.1 mph - 0.02 in Rain , Thunderstorm Light Rain
4:21 PM 60.1 °F 53.1 °F 78% 29.31 in 10.0 mi SSW 12.7 mph - 0.02 in   Overcast
4:53 PM 64.0 °F 50.0 °F 60% 29.32 in 10.0 mi SSW 20.7 mph 26.5 mph 0.02 in   Mostly Cloudy
5:53 PM 60.1 °F 48.0 °F 64% 29.38 in 10.0 mi SW 23.0 mph 28.8 mph N/A   Overcast
6:53 PM 55.9 °F 46.9 °F 72% 29.41 in 10.0 mi SW 11.5 mph - N/A   Overcast
7:53 PM 55.0 °F 45.0 °F 69% 29.42 in 10.0 mi SSW 5.8 mph - N/A   Overcast
8:53 PM 52.0 °F 46.0 °F 80% 29.42 in 10.0 mi SE 5.8 mph - N/A   Overcast
9:53 PM 52.0 °F 45.0 °F 77% 29.42 in 10.0 mi SE 4.6 mph - N/A   Overcast
10:53 PM 52.0 °F 46.0 °F 80% 29.41 in 10.0 mi East 5.8 mph - N/A   Overcast
11:53 PM 52.0 °F 45.0 °F 77% 29.41 in 10.0 mi East 6.9 mph - N/A   Overcast